Content
SEND FEEDBACK

Daily
Averages
Monthly
Summary
Argentina

FUNES, ARGENTINA


Home > South America > Argentina
Elevation: 82 feet     Latitude: 32 55S     Longitude: 060 46W

WEATHER
 
SELECT A DAY
Number of Records: 143,786;   Date Range: 6/30/96 - 10/20/14
 
SHARE

PRINT THIS DATA

[ ← Previous Day ]
WEATHER ALMANAC - JANUARY 23, 2013
[ Next Day → ]
[ °C ]   °F
Weather ElementAverageHighLow
Temperature81.5 °F90 °F (6:00 pm)71 °F (6:00 am)
Dewpoint67.4 °F71.6 °F (9:00 am)62.6 °F (7:00 pm)
Humidity62 %83 % (5:00 am)34 % (6:00 pm)
Barometer29.82 in29.92 in (12:00 am)29.68 in (7:00 pm)
Wind Speed5.7 mph10.4 mph (2:00 pm)
Weather ElementAverage
Visibility6.9 mi
Wind DirectionSE (137 °)

Weather ElementTotal
Precipitation---
Cooling Degree Days15.5 (Base 65)
Growing Degree Days30.5 (Base 50)
Averaged from 31 records on January 23, 2013
WEATHER CONDITIONS BREAKOUT
WIND DIRECTION BREAKOUT
WEATHER BY HOUR - JANUARY 23, 2013
[ °C ]   °F
Local TimeTemperatureDewpointHumidityBarometerVisibilityWind DirectionWind SpeedGust SpeedPrecipitationEventsConditions
12:00 AM77.0 °F64.4 °F65 %29.92 inEast (90°)6.9 mphClear
1:00 AM75.2 °F66.2 °F73 %29.92 inEast (90°)5.8 mphClear
2:00 AM75.2 °F64.4 °F69 %29.89 inEast (90°)4.6 mphClear
3:00 AM73.4 °F64.4 °F73 %29.89 inNE (50°)4.6 mphClear
4:00 AM73.4 °F64.4 °F73 %29.86 inNE (50°)4.6 mphClear
5:00 AM71.6 °F66.2 °F83 %29.86 inNE (50°)4.6 mphClear
6:00 AM71.6 °F66.2 °F83 %29.89 inCalmClear
6:00 AM71.0 °F66.0 °F80 %29.89 in9.0 miCalm
7:00 AM71.6 °F66.2 °F83 %29.89 inCalmClear
8:00 AM75.2 °F69.8 °F83 %29.89 inNorth (360°)4.6 mphClear
9:00 AM80.0 °F71.0 °F69 %29.90 in7.0 miNNW (340°)9.2 mph
9:00 AM80.6 °F71.6 °F74 %29.89 inNNW (340°)9.2 mphClear
10:00 AM84.2 °F71.6 °F66 %29.89 inNorth (360°)9.2 mphClear
11:00 AM86.0 °F71.6 °F62 %29.86 in6.2 miNNW (340°)8.1 mphPartly Cloudy
12:00 PM87.8 °F68.0 °F52 %29.86 in6.2 miNorth (360°)6.9 mphMostly Cloudy
12:00 PM89.0 °F67.0 °F39 %29.86 in7.0 miNorth6.9 mphPartly Cloudy
1:00 PM89.6 °F68.0 °F49 %29.83 in6.2 miNNW (340°)5.8 mphRainLight Rain
2:00 PM84.2 °F69.8 °F62 %29.83 in5.6 miEast (90°)10.4 mphRain-ThunderstormLight Thunderstorms and Rain
2:38 PM84.2 °F69.8 °F62 %29.80 in6.2 miEast (90°)5.8 mphMostly Cloudy
3:00 PM85.0 °F71.0 °F54 %29.80 in9.0 miEast (90°)6.9 mphThunderstormLight Thunderstorm
3:00 PM84.2 °F71.6 °F66 %29.80 in6.2 miEast (90°)6.9 mphScattered Clouds
4:00 PM84.2 °F68.0 °F58 %29.77 in6.2 miESE (110°)5.8 mphPartly Cloudy
5:00 PM89.6 °F68.0 °F49 %29.74 in6.2 miEast (90°)8.1 mphPartly Cloudy
6:00 PM89.6 °F64.4 °F43 %29.71 in6.2 miENE (70°)9.2 mphPartly Cloudy
6:00 PM90.0 °F65.0 °F34 %29.71 in9.0 miENE (70°)9.2 mphScattered Clouds
7:00 PM89.6 °F62.6 °F40 %29.68 inNNE (20°)6.9 mphClear
8:00 PM86.0 °F66.2 °F51 %29.68 inNE (50°)3.5 mphClear
9:00 PM83.0 °F67.0 °F48 %29.70 in7.0 miENE (70°)3.5 mph
9:00 PM84.2 °F66.2 °F55 %29.68 inENE (70°)3.5 mphClear
10:00 PM82.4 °F66.2 °F58 %29.68 inNNE (20°)2.3 mphClear
11:00 PM78.8 °F66.2 °F65 %29.71 inNW (320°)2.3 mphClear
Hourly data recorded from SAAR, located miles away from Funes, Argentina







STORIES FROM OUR PARTNERS